SCP
0 0 0 0 0 0 1 1 1 1 1 1 1 1 1 0 0 0 0 0 0 0 0 0 1 1 1 1 1 1 1 1 1 1 1 1 1 1 1 0 0 0 0
0 0 0 0 0 0 1 1 1 1 1 1 1 1 1 0 0 0 0 0 0 0 0 0 1 1 1 1 1 1 1 1 1 1 1 1 1 1 1 0 0 0 0
0 0 0 0 0 0 1 1 1 2 1 1 1 1 1 0 0 0 0 0 0 1 1 1 1 1 1 1 1 1 1 1 1 1 1 1 1 1 1 1 0 0 0
0 0 0 0 0 0 1 1 2 2 1 1 1 1 0 0 0 0 0 1 1 1 1 1 1 2 1 1 1 1 1 1 1 1 1 1 1 1 1 1 1 0 0
0 0 0 0 0 1 1 2 2 2 1 1 1 1 1 0 0 0 0 1 1 1 1 2 2 2 2 2 1 1 1 2 2 2 2 2 2 2 1 1 0 0 1
0 0 0 0 1 1 1 2 2 2 1 1 1 1 1 0 0 0 0 1 1 1 1 1 2 2 2 1 1 1 1 2 2 3 3 2 2 1 1 1 0 0 0
0 0 1 1 1 1 1 1 1 1 1 1 1 1 1 0 0 0 0 1 1 1 1 1 1 1 1 1 1 1 1 1 2 2 2 2 1 1 1 1 1 1 1
1 1 1 1 1 1 1 1 1 1 1 1 1 0 0 0 0 1 1 1 1 1 1 1 1 1 1 1 1 1 1 1 2 1 1 1 1 1 1 1 1 1 1
1 1 1 1 1 1 1 1 1 1 1 1 0 0 0 0 1 1 1 1 1 1 1 1 1 1 1 1 1 1 1 1 2 2 1 1 1 1 1 1 1 1 1
1 1 1 1 1 1 1 1 1 1 1 1 0 0 0 0 0 1 1 0 0 0 1 1 1 1 1 1 1 1 1 1 1 1 1 1 1 1 1 1 1 1 1
1 1 1 1 1 1 1 1 1 1 1 1 1 0 0 0 0 0 0 0 0 0 0 1 1 1 1 1 0 0 1 1 1 1 1 1 1 1 1 1 1 1 1
1 1 1 1 1 1 1 1 1 1 1 1 1 1 0 0 0 0 0 0 0 0 0 0 0 1 1 1 0 0 1 1 1 1 1 1 1 1 1 1 1 1 1
1 1 1 2 2 2 1 1 1 1 1 1 1 1 1 0 0 0 0 0 0 0 0 0 0 0 0 0 0 1 1 1 0 0 0 1 1 1 1 1 1 1 1
1 1 2 2 3 2 2 1 1 1 1 1 1 1 1 0 0 0 0 0 0 0 0 0 0 0 0 0 0 1 1 1 0 0 0 0 1 1 1 1 1 1 1
1 1 2 3 3 3 2 2 1 1 1 1 1 1 1 1 1 1 1 1 0 0 0 0 0 0 0 0 0 1 1 1 0 0 0 0 1 1 1 1 1 1 1
1 1 2 3 3 3 2 1 1 1 1 1 1 1 1 1 1 1 1 1 1 1 1 1 1 1 0 0 1 1 1 1 0 0 0 0 1 1 1 1 1 1 1
1 1 2 2 3 3 2 2 1 1 1 1 1 1 1 1 1 1 1 1 1 1 1 1 1 1 1 1 1 1 1 1 0 0 0 0 0 1 1 0 0 0 0
1 1 1 2 2 2 2 2 1 2 2 2 1 1 1 1 1 1 2 2 2 2 1 1 1 1 1 1 1 1 1 1 1 0 0 0 0 0 0 0 0 0 0
2 2 1 1 1 1 1 1 1 2 2 2 2 2 1 1 1 2 2 2 2 2 2 2 1 1 1 1 1 1 1 1 1 1 1 1 0 0 0 0 0 0 0
3 3 3 2 2 2 2 1 1 1 2 2 2 2 1 1 2 2 2 3 3 3 3 2 2 2 2 2 2 2 2 2 1 1 1 1 1 1 0 0 0 0 0
5 4 4 4 4 4 3 2 1 1 1 2 2 2 2 2 2 2 2 3 4 4 4 3 3 3 2 2 2 2 2 2 2 1 1 1 2 2 1 1 0 0 0
5 4 4 5 5 5 4 3 2 2 2 2 2 2 2 2 2 2 2 3 4 5 5 4 4 4 3 3 3 2 2 2 2 2 2 2 2 2 1 1 0 0 0
4 4 4 5 5 5 4 3 2 2 2 2 2 2 2 2 3 3 3 3 4 4 5 5 5 4 4 4 3 3 3 2 2 2 2 2 2 2 1 1 0 0 0
3 3 4 4 4 4 3 2 1 1 2 2 2 2 2 2 2 3 4 4 5 4 4 5 5 5 4 4 3 2 3 3 2 2 2 2 2 1 1 1 0 0 0
3 3 3 3 3 2 1 1 0 1 1 2 2 2 2 2 1 2 3 5 6 6 5 4 4 4 4 3 2 2 2 2 2 2 2 2 2 2 1 1 1 0 0
3 3 2 2 2 1 1 0 0 1 1 1 2 2 2 1 1 1 2 4 6 7 7 5 3 3 3 2 2 2 2 2 2 2 2 2 2 2 2 1 1 1 0
Wind_Speed
1 1 1 1 1 1 1 1 1 1 1 1 1 1 1 1 1 1 1 3 4 4 4 5 5 6 6 6 6 6 6 7 7 7 7 7 7 8 8 7 7 6 6
1 0 1 1 1 1 1 1 1 1 1 1 1 0 0 0 1 1 1 1 2 3 3 3 4 5 5 5 6 6 6 6 6 6 7 7 7 8 8 7 7 6 6
1 1 1 1 1 1 1 1 1 1 1 1 1 0 0 0 1 1 1 1 1 2 3 3 3 4 5 5 6 7 6 6 6 7 7 7 7 7 7 7 7 7 6
2 1 1 0 1 1 1 1 1 1 1 1 0 0 1 0 0 1 1 1 1 1 1 2 2 3 4 5 5 6 6 6 6 7 7 8 8 8 8 8 8 7 7
2 2 1 0 1 1 1 1 1 1 1 1 1 1 1 1 1 0 0 0 0 0 1 1 1 2 3 4 4 5 6 6 6 6 7 8 8 8 8 8 8 8 7
2 2 1 1 1 1 1 1 1 2 1 1 1 2 2 2 1 1 0 0 0 0 0 1 0 0 2 3 3 4 4 5 5 6 7 8 8 8 8 8 8 8 8
2 2 1 1 1 1 1 1 1 2 2 1 2 2 2 2 2 1 1 1 0 0 0 0 1 0 1 2 3 4 4 4 5 6 7 7 8 7 8 8 8 8 9
2 2 2 1 1 1 1 1 1 1 1 1 2 1 2 2 2 2 1 1 1 1 0 0 0 0 1 1 1 3 4 4 5 6 6 6 7 6 7 8 9 9 8
1 1 2 2 1 2 1 1 1 2 1 1 1 2 2 1 1 2 2 1 1 0 0 0 0 0 1 1 1 2 3 3 3 4 6 6 6 6 6 7 8 9 9
1 1 2 2 2 1 1 1 1 1 2 1 0 0 1 2 1 1 2 2 1 0 1 0 0 1 1 1 2 2 3 4 4 5 5 6 6 6 6 7 7 7 8
0 1 1 2 2 1 1 1 1 1 1 2 1 1 1 1 1 1 1 2 2 1 1 1 1 1 1 2 2 2 4 4 4 4 4 4 4 5 6 6 6 6 7
0 0 1 1 1 1 2 2 2 2 1 1 1 1 2 1 2 2 2 2 2 2 1 1 1 1 1 2 3 3 4 4 4 4 4 5 5 4 4 5 6 6 5
1 1 1 1 1 2 2 1 1 1 2 2 2 2 2 2 2 2 2 1 1 2 1 1 2 1 2 2 2 3 4 4 4 5 5 5 5 4 4 4 4 4 4
2 2 2 2 2 2 2 2 1 2 1 2 2 2 2 2 2 2 2 2 1 1 1 2 1 1 1 2 2 3 3 4 4 5 5 5 5 5 4 4 4 4 4
2 2 2 2 2 2 2 2 1 2 1 2 2 2 2 2 2 2 2 3 3 2 3 2 2 2 1 2 2 2 2 3 4 5 5 5 5 5 4 4 4 4 4
2 2 2 2 2 2 2 2 2 2 2 2 1 1 1 1 1 2 2 2 2 2 3 2 2 2 2 2 1 2 2 2 3 4 5 5 5 5 4 4 4 4 4
3 3 3 3 3 3 3 3 3 2 3 2 2 2 2 2 2 2 2 2 2 2 3 3 2 2 2 2 2 1 1 2 2 4 5 6 6 5 5 4 4 4 4
3 3 3 2 3 3 3 3 3 2 3 3 3 2 3 2 2 2 2 2 2 2 3 3 2 2 2 2 2 2 2 2 2 2 4 5 5 5 5 5 5 5 5
3 3 2 2 2 2 2 3 3 3 3 4 4 4 4 3 3 2 2 2 2 2 2 2 2 2 1 1 1 1 1 1 2 2 3 5 5 6 6 6 6 6 6
3 3 2 2 3 2 2 2 2 3 3 3 3 3 3 4 4 3 3 3 2 2 1 2 2 1 1 1 1 1 1 1 2 2 2 2 3 5 6 7 7 7 7
3 2 2 2 2 2 2 2 2 2 2 2 2 3 3 4 4 3 3 2 2 2 1 1 2 2 2 1 2 2 2 2 2 2 2 2 2 2 3 5 6 7 7
2 2 2 3 3 3 3 3 3 2 2 3 3 3 3 3 3 4 4 3 4 3 3 2 2 3 3 3 2 2 2 2 2 1 2 2 2 2 3 3 4 6 7
3 2 3 3 3 4 4 3 3 3 3 3 3 3 3 2 2 2 2 2 3 4 5 4 4 5 4 4 3 3 3 3 4 2 2 3 2 3 3 3 5 6 7
2 3 3 3 3 4 3 3 3 2 3 3 3 3 3 3 2 2 2 2 2 3 4 4 5 5 5 4 5 4 4 3 3 2 3 3 3 3 3 3 5 6 6
2 2 2 2 2 3 3 3 2 2 2 3 3 3 3 3 3 3 2 2 3 3 3 4 5 5 5 6 5 3 3 3 3 3 3 3 2 3 3 3 4 5 5
2 2 2 2 3 3 3 3 2 2 2 2 2 2 4 4 3 3 3 3 4 4 3 3 3 3 3 4 6 6 5 4 3 3 4 4 2 2 2 2 2 3 3
Wind_Direction
69 24 19 20 17 32 36 26 40 67 66 73 92 119 146 181 190 192 229 228 217 221 227 223 226 224 210 201 201 197 194 197 198 199 200 191 189 187 187 188 193 196 192
140 90 41 22 10 17 23 43 44 84 74 90 71 74 139 198 190 182 192 233 225 224 229 225 222 219 209 198 194 189 192 194 194 192 193 191 190 190 192 195 197 194 190
153 135 102 29 358 21 48 62 60 74 93 95 75 35 95 194 213 182 172 174 225 234 233 228 217 210 203 199 197 195 196 196 193 193 193 194 190 190 195 199 199 198 194
144 129 116 42 19 45 68 82 71 68 62 66 54 2 31 38 326 199 185 195 196 223 227 221 207 200 206 207 206 201 199 200 199 198 198 198 197 195 196 200 201 201 198
140 129 123 93 74 63 57 80 66 80 67 50 75 54 32 27 2 44 158 188 168 171 168 175 169 175 199 210 211 211 207 207 204 203 203 200 198 196 198 201 203 201 198
145 134 132 119 100 85 61 60 74 67 74 69 67 46 26 20 26 29 56 55 54 165 141 154 149 205 229 232 228 221 215 215 210 209 208 205 202 201 201 202 201 201 201
149 142 129 111 102 105 95 73 81 71 49 57 66 31 14 27 37 22 54 59 31 351 96 118 142 173 252 260 249 231 221 216 207 210 212 209 208 205 205 201 199 201 204
164 161 151 148 136 119 85 66 87 89 61 64 97 81 14 358 9 22 27 51 8 12 46 93 103 147 233 253 257 231 224 222 212 209 210 207 207 205 205 202 201 203 205
149 151 157 153 150 142 152 175 139 140 141 70 88 129 137 231 328 350 8 24 28 49 6 109 99 287 263 255 261 245 229 227 216 211 208 204 200 201 202 201 204 205 207
161 164 154 153 154 153 167 203 161 158 151 156 124 82 134 154 158 323 338 356 2 358 312 311 286 256 254 250 248 229 219 218 220 219 214 207 200 202 202 207 212 213 211
42 145 152 150 158 172 189 186 154 149 154 160 168 155 114 80 131 168 280 320 340 319 280 260 255 254 255 251 244 228 216 205 205 210 205 203 202 207 212 216 216 218 217
9 65 150 158 169 184 203 203 187 171 170 160 171 164 162 163 182 171 215 272 292 295 283 263 256 259 257 257 251 228 207 200 193 193 190 190 190 196 202 214 217 219 213
237 242 201 188 195 211 214 201 187 189 184 181 204 210 204 206 180 169 176 222 271 300 296 274 251 259 262 258 257 243 218 205 199 197 196 190 189 193 194 199 202 203 204
226 230 210 208 213 209 217 202 196 211 190 206 222 212 212 220 195 187 179 174 241 289 281 270 278 255 269 257 258 252 236 218 205 202 201 198 195 196 196 202 208 210 209
226 223 223 222 221 211 210 191 205 218 194 209 224 224 226 230 205 202 194 188 188 242 268 255 258 262 263 255 260 252 241 225 207 203 200 200 199 196 197 201 206 211 212
239 224 236 236 233 226 217 202 215 218 205 227 223 213 233 238 220 203 201 202 201 206 247 246 247 271 273 274 269 253 249 229 211 200 203 201 197 196 199 205 205 208 209
219 219 230 236 242 237 226 211 222 218 217 233 235 216 238 240 231 219 201 200 207 202 237 264 258 278 267 271 298 284 265 250 235 214 208 201 195 192 191 192 206 214 215
221 221 226 231 245 246 230 217 225 221 214 227 234 229 240 236 235 229 206 212 216 214 219 252 266 265 258 267 277 283 280 260 248 227 210 203 197 194 194 203 208 215 218
221 218 214 229 246 248 232 221 215 213 214 221 222 225 235 226 241 237 221 219 221 227 222 229 262 267 263 261 281 287 283 293 276 253 218 212 206 206 209 214 216 218 219
215 223 224 239 245 244 235 225 218 219 225 234 233 232 234 225 229 231 230 224 216 222 218 222 252 266 262 261 221 255 280 285 285 285 260 223 214 219 221 222 223 224 221
217 218 225 248 255 245 238 226 218 223 226 246 252 246 243 233 228 226 233 218 204 210 206 215 243 260 261 241 234 226 245 276 275 266 252 239 227 229 230 231 231 229 225
219 211 229 242 254 260 258 234 211 223 226 236 249 255 251 245 243 242 247 236 209 203 208 213 232 242 255 245 239 231 226 242 262 242 227 253 229 240 245 240 237 231 227
218 226 233 232 248 256 256 245 219 211 229 235 236 241 249 252 247 236 249 253 242 230 212 208 223 238 236 227 216 231 227 229 242 231 211 254 246 248 250 253 244 234 229
218 222 225 231 246 264 267 249 232 218 236 246 241 226 229 251 242 220 223 246 259 253 241 229 230 238 235 225 216 221 228 239 255 237 208 239 248 249 254 249 245 238 234
223 218 219 223 238 269 278 260 221 216 238 254 252 233 221 228 229 214 219 248 269 275 262 249 251 250 243 233 213 198 209 219 245 240 203 216 239 249 254 250 244 233 229
218 219 233 233 237 257 270 259 218 209 239 257 260 245 226 225 225 215 215 223 246 263 275 287 282 276 256 236 214 209 212 218 227 237 206 199 216 217 250 242 242 234 226